sat.trackr.live / text

‹ back to catalog

STARLINK-37446

NORAD 68808 · 2026-089G

PAYLOAD ACTIVE UNKNOWN

§ Identity

Operator
Country
US
Launch date
2026-04-23
Launch site
AFWTR
Launch vehicle
Mass (kg)
RCS (m²)

Purposes: comms

External: N2YO · Heavens-Above · Gunter

§ Orbital elements

Epoch: 2026-09-20T00:38:17.903040Z

Period
93.91 min
Inclination
97.2847°
Eccentricity
0.0003098
Mean motion
15.33445196 rev/d
Perigee alt
463.4 km
Apogee alt
467.7 km
Semi-major
6,843.7 km
B*
4.1532e-4
RAAN
108.7490°
Arg perigee
76.8784°
Mean anomaly
283.2804°
Rev number
2,318

§ Raw data

STARLINK-374461 68808U 26089G   26263.02659610  .00013358  00000+0  41532-3 0  99902 68808  97.2847 108.7490 0003098  76.8784 283.2804 15.33445196 23180

JSON: /api/v1/satellites/68808 · /tle

For live sub-satellite position, see the globe view (requires WebGL).

§ Visibility from observer

Set your observer location to see the next 7 days of passes ≥ 10°. The values pass through the URL so the page stays shareable.

No JS? Fill the form by hand. The geolocation button needs JavaScript.